Victoria, TX

1:16 PM CDT on August 21, 2017 (GMT -0500)
Victoria Regional

Weather History for KVCT - November, 2012

Change the Weather History Date:

Sunday, November 4, 2012

  Actual Average Record
Temperature  
Mean Temperature 72 °F 67 °F  
Max Temperature 86 °F 78 °F 93 °F (1988)
Min Temperature 58 °F 56 °F 31 °F (2011)
Degree Days  
Heating Degree Days 0 2  
Month to date heating degree days 0 8  
Since 1 July heating degree days 37 31  
Cooling Degree Days 7 4  
Month to date cooling degree days 32 18  
Year to date cooling degree days 3579 3061  
Growing Degree Days 22 (Base 50)    
Moisture  
Dew Point 61 °F    
Average Humidity 74    
Maximum Humidity 100    
Minimum Humidity 48    
Precipitation  
Precipitation 0.00 in 0.11 in 1.37 in (2002)
Month to date precipitation T 0.43  
Year to date precipitation 26.55 36.10  
Snow  
Snow 0.00 in - - ()
Month to date snowfall 0.0  
Since 1 July snowfall 0.0  
Since 1 September snowfall 0.0  
Snow Depth 0.00 in    
Sea Level Pressure  
Sea Level Pressure 30.06 in    
Wind  
Wind Speed 4 mph (North)    
Max Wind Speed 12 mph    
Max Gust Speed 20 mph    
Visibility 7 miles    
Events Fog , Thunderstorm    
T = Trace of Precipitation, MM = Missing Value Source: NWS Daily Summary

Daily Weather History Graph

Daily Weather History Graph

Search for Another Location

Airport or City:

Trip Planner

Search our weather history database for the weather conditions in past years. The results will help you decide how hot, cold, wet, or windy it might be!

Date:

Astronomy

Nov. 04, 2012 Rise Set
Actual Time 6:42 AM CST 5:39 PM CST
Civil Twilight 6:18 AM CST 6:04 PM CST
Nautical Twilight 5:49 AM CST 6:32 PM CST
Astronomical Twilight 5:22 AM CST 7:00 PM CST
Moon 10:22 PM CST (11/4) 11:22 AM CST (11/4)
Length of Visible Light 11h 46m
Length of Day
10h 56m
Waning Gibbous, 72% of the Moon is Illuminated
Nov 4
Waning Gibbous
Nov 6
Last Quarter
Nov 13
New
Nov 20
First Quarter
Nov 28
Full

Hourly Weather History & Observations

Time (CST) Temp. Heat Index Dew Point Humidity Pressure Visibility Wind Dir Wind Speed Gust Speed Precip Events Conditions
12:04 AM 64.4 °F - 62.6 °F 94% 30.05 in 10.0 mi ESE 4.6 mph - N/A   Clear
12:25 AM 64.4 °F - 62.6 °F 94% 30.05 in 10.0 mi SE 3.5 mph - N/A Thunderstorm Clear
12:51 AM 64.0 °F - 62.1 °F 93% 30.05 in 10.0 mi SSE 3.5 mph - N/A   Clear
1:51 AM 61.0 °F - 60.1 °F 97% 30.04 in 7.0 mi Calm Calm - N/A   Clear
1:36 AM 59.0 °F - 57.2 °F 94% 30.04 in 2.5 mi West 3.5 mph - N/A   Clear
1:43 AM 60.8 °F - 59.0 °F 94% 30.04 in 5.0 mi WSW 4.6 mph - N/A   Clear
1:51 AM 61.0 °F - 60.1 °F 97% 30.03 in 4.0 mi West 6.9 mph - N/A   Clear
2:51 AM 60.1 °F - 59.0 °F 96% 30.04 in 6.0 mi NNE 4.6 mph - N/A   Clear
3:21 AM 59.0 °F - 57.2 °F 94% 30.04 in 5.0 mi North 3.5 mph - N/A   Scattered Clouds
3:37 AM 60.8 °F - 57.2 °F 88% 30.04 in 2.5 mi North 4.6 mph - N/A   Scattered Clouds
3:44 AM 60.8 °F - 59.0 °F 94% 30.04 in 4.0 mi North 3.5 mph - N/A   Scattered Clouds
3:51 AM 59.0 °F - 57.9 °F 96% 30.04 in 1.5 mi NNW 3.5 mph - N/A   Partly Cloudy
3:56 AM 59.0 °F - 57.2 °F 94% 30.04 in 0.8 mi NNW 3.5 mph - N/A   Clear
4:28 AM 57.2 °F - 57.2 °F 100% 30.05 in 0.5 mi North 3.5 mph - N/A Fog Fog
4:39 AM 59.0 °F - 57.2 °F 94% 30.05 in 1.2 mi North 4.6 mph - N/A   Partly Cloudy
4:47 AM 59.0 °F - 57.2 °F 94% 30.06 in 2.0 mi NNW 4.6 mph - N/A   Partly Cloudy
4:51 AM 59.0 °F - 57.9 °F 96% 30.05 in 3.0 mi NNW 4.6 mph - N/A   Partly Cloudy
5:51 AM 61.0 °F - 60.1 °F 97% 30.06 in 9.0 mi Calm Calm - N/A   Clear
5:59 AM 60.8 °F - 60.8 °F 100% 30.08 in 10.0 mi West 8.1 mph - N/A Thunderstorm Thunderstorm
6:13 AM 62.6 °F - 62.6 °F 100% 30.09 in 8.0 mi NW 3.5 mph - N/A   Mostly Cloudy
6:23 AM 62.6 °F - 62.6 °F 100% 30.09 in 8.0 mi Calm Calm - N/A   Mostly Cloudy
6:51 AM 63.0 °F - 61.0 °F 93% 30.07 in 8.0 mi East 4.6 mph - N/A   Clear
7:02 AM 62.6 °F - 62.6 °F 100% 30.08 in 6.0 mi ENE 5.8 mph - N/A Thunderstorm Clear
7:29 AM 62.6 °F - 62.6 °F 100% 30.08 in 6.0 mi NE 8.1 mph - N/A   Clear
7:51 AM 64.0 °F - 63.0 °F 96% 30.09 in 7.0 mi ENE 5.8 mph - N/A   Clear
8:22 AM 66.2 °F - 64.4 °F 94% 30.10 in 10.0 mi Calm Calm - N/A   Partly Cloudy
8:51 AM 69.1 °F - 64.0 °F 84% 30.10 in 10.0 mi North 3.5 mph - N/A   Clear
9:51 AM 75.9 °F - 64.9 °F 69% 30.11 in 10.0 mi NNE 5.8 mph - N/A   Clear
10:51 AM 79.0 °F - 63.0 °F 58% 30.10 in 7.0 mi WNW 4.6 mph - N/A   Clear
11:51 AM 82.0 °F 83.0 °F 62.1 °F 51% 30.07 in 10.0 mi North 9.2 mph - N/A   Clear
12:51 PM 84.9 °F 85.4 °F 62.1 °F 46% 30.05 in 10.0 mi West 5.8 mph - N/A   Partly Cloudy
1:51 PM 82.9 °F 84.0 °F 63.0 °F 51% 30.03 in 10.0 mi North 5.8 mph - N/A   Partly Cloudy
2:51 PM 84.0 °F 85.4 °F 64.0 °F 51% 30.01 in 10.0 mi NE 8.1 mph - N/A   Mostly Cloudy
3:51 PM 84.0 °F 85.4 °F 64.0 °F 51% 30.00 in 10.0 mi NNE 3.5 mph - N/A   Clear
4:51 PM 82.0 °F 83.1 °F 63.0 °F 52% 30.01 in 10.0 mi North 4.6 mph - N/A   Clear
5:51 PM 75.9 °F - 64.0 °F 67% 30.03 in 6.0 mi Calm Calm - N/A   Haze
6:51 PM 72.0 °F - 63.0 °F 73% 30.05 in 10.0 mi Calm Calm - N/A   Clear
7:51 PM 69.1 °F - 64.0 °F 84% 30.07 in 10.0 mi East 5.8 mph - N/A   Clear
8:51 PM 69.1 °F - 64.9 °F 87% 30.08 in 10.0 mi SSE 5.8 mph - N/A   Clear
9:51 PM 68.0 °F - 66.0 °F 93% 30.08 in 10.0 mi SSE 3.5 mph - N/A   Clear
10:51 PM 66.0 °F - 64.9 °F 96% 30.08 in 7.0 mi SW 3.5 mph - N/A   Clear